カタログに戻る

THORAD DELTA 1 DEB

運用中LEO
NORAD 8305·DEBRIS·🇺🇸 United States

打ち上げ Nov 15, 1974 から Vandenberg Space Force Base

Loading…

次のパス (今後24時間)

TLE

最新Source: Space-Track

元期: Sep 14, 2026, 12:24 UTC

1 08305U 74089BN  26257.51672588 -.00000023  00000-0  13263-3 0  9992
2 08305 101.4253  95.2252 0093624  79.3563 308.9542 12.35213128336119

AllMySatでTHORAD DELTA 1 DEBをリアルタイム追跡

Download on the App Store